Seattle, WA
on Monday, November 5, 2012

Monday
Previous Day Next Day
Daily Summary
 ActualAverageRecord
Temperature
Mean Temperature °F 48°F  
Max Temperature 59°F 53°F 65°F (1949)
Min Temperature 46°F 42°F 31°F (1961)
Degree Days
Heating Degree Days 12 17  
Month to date heating degree days 46 84  
Since 1 July heating degree days 539 681  
Cooling Degree Days 0 0  
Month to date cooling degree days 0 0  
Year to date cooling degree days 177 189  
Growing Degree Days4 (Base °F )  
Moisture
Dew Point 45°F   
Average Humidity 69    
Maximum Humidity 87    
Minimum Humidity 51    
Precipitation
Precipitation 0.03 in 0.20 in 1.01 in (1988)
Month to date precipitation 0.97 0.98  
Year to date precipitation 34.10 26.55  
Snow
Snow 0.00 in in T in (1973)
Month to date snowfall 0.0  
Since 1 July snowfall 0.0  
Snow Depth 0.00 in   
Wind
Wind Speed 9 mph   
Max Wind Speed 18 mph   
Max Gust Speed 23 mph   
Visibility 9 miles   
Events Rain   

Key: T is trace of precipitation, MM is missing value
Source: NWS Daily Summary
Time(PST)TemperatureDew PointHumidity Pressure Visibility Wind DirectionWind SpeedGust SpeedPrecipitationEvents Conditions
12:17 AM 57.2°F 55.4°F 94% 30.31 in 2.0 miles WSW 8.1 mph - 0.01 in Rain Light Rain
12:44 AM 57.2°F 55.4°F 94% 30.32 in 5.0 miles WNW 5.8 mph - 0.02 in   Overcast
12:53 AM 57.0°F 55.0°F 93% 30.33 in 5.0 miles NW 5.8 mph - 0.02 in   Overcast
1:20 AM 53.6°F 51.8°F 94% 30.32 in 5.0 miles NE 15.0 mph - 0.00 in   Overcast
1:53 AM 53.1°F 50.0°F 89% 30.36 in 2.0 miles NNE 16.1 mph - 0.01 in Rain Light Rain
2:53 AM 53.1°F 50.0°F 89% 30.38 in 7.0 miles NE 11.5 mph - 0.00 in   Overcast
3:53 AM 53.1°F 48.0°F 83% 30.38 in 7.0 miles NE 13.8 mph - N/A   Overcast
4:53 AM 53.1°F 48.0°F 83% 30.40 in 10.0 miles NNE 13.8 mph - N/A   Overcast
5:15 AM 53.6°F 46.4°F 77% 30.37 in 10.0 miles NE 18.4 mph 21.9 mph N/A   Overcast
5:53 AM 53.1°F 46.0°F 77% 30.39 in 10.0 miles NE 13.8 mph - N/A   Mostly Cloudy
6:53 AM 53.1°F 44.1°F 71% 30.39 in 10.0 miles NNE 10.4 mph - N/A   Mostly Cloudy
7:53 AM 53.1°F 44.1°F 71% 30.40 in 10.0 miles NE 4.6 mph - N/A   Mostly Cloudy
8:53 AM 55.9°F 43.0°F 62% 30.42 in 10.0 miles North 10.4 mph - N/A   Mostly Cloudy
9:53 AM 55.0°F 42.1°F 62% 30.41 in 10.0 miles NE 10.4 mph - 0.00 in   Mostly Cloudy
10:53 AM 57.0°F 42.1°F 57% 30.42 in 10.0 miles NE 12.7 mph - N/A   Mostly Cloudy
11:53 AM 57.0°F 41.0°F 55% 30.40 in 10.0 miles NE 12.7 mph - N/A   Mostly Cloudy
12:53 PM 57.9°F 42.1°F 56% 30.39 in 10.0 miles NNE 13.8 mph - N/A   Mostly Cloudy
1:53 PM 59.0°F 41.0°F 51% 30.37 in 10.0 miles North 12.7 mph - N/A   Mostly Cloudy
2:53 PM 57.0°F 39.9°F 53% 30.35 in 10.0 miles North 9.2 mph - N/A   Overcast
3:53 PM 55.9°F 43.0°F 62% 30.34 in 10.0 miles North 9.2 mph - N/A   Overcast
4:53 PM 52.0°F 41.0°F 66% 30.32 in 10.0 miles North 8.1 mph - N/A   Mostly Cloudy
5:53 PM 50.0°F 42.1°F 74% 30.32 in 10.0 miles NNW 5.8 mph - N/A   Mostly Cloudy
6:53 PM 50.0°F 41.0°F 71% 30.29 in 10.0 miles North 6.9 mph - N/A   Mostly Cloudy
7:53 PM 48.0°F 42.1°F 80% 30.27 in 10.0 miles North 5.8 mph - N/A   Mostly Cloudy
8:53 PM 48.0°F 43.0°F 83% 30.25 in 10.0 miles North 3.5 mph - N/A   Scattered Clouds
9:53 PM 50.0°F 44.1°F 80% 30.22 in 10.0 miles North 5.8 mph - N/A   Mostly Cloudy
10:53 PM 48.0°F 43.0°F 83% 30.20 in 10.0 miles Calm Calm - N/A   Partly Cloudy
11:53 PM 46.9°F 43.0°F 86% 30.19 in 10.0 miles Calm Calm - N/A   Mostly Cloudy
Moon Phase
Nov. 05 Nov. 06 Nov. 13 Nov. 20 Nov. 28
Sunrise:06:59 AM (PST) Moon Rise:10:29 PM (PST)11/5
Sunset:04:45 PM (PST) Moon Set:12:22 PM (PST)11/5

Copyright © 2014 The Weather Underground, Inc.